www.pogodaiklimat.ru

АРХИВ ПОГОДЫ в Сан-Франциско

Время (UTC), дата Ветер
(напр.,м/с)
 
Видим.   Явления Облачность Т
(С)
Тd
(С)
f
(%)
Тe
(С)
Тes
(С)
Комфортность

P
(гПа)

Po
(гПа)
Тmin
(С)
Tmax
(С)
R
(мм)
SD
(см)
17:56 18.08 СЗ  16 км    2/2 270 м  +20.0  +11.7  59  +21  +25  комфорт  1017.7  1017.1         
18:56 18.08 СЗ  16 км    2/2 270 м  +19.4  +12.2  63  +20  +23    1017.3  1016.8         
19:56 18.08 СЗ  16 км    2/2 270 м  +21.1  +12.8  59  +23  +25  комфорт  1016.8  1016.5         
20:56 18.08 СЗ  16 км    2/2 210 м  +21.1  +12.2  57  +23  +23  комфорт  1016.2  1015.8         
21:56 18.08 СЗ  16 км    2/2 180 м  +20.6  +12.8  61  +22  +24  комфорт  1015.5  1015.1         
22:56 18.08 З  10  16 км    2/2 180 м  +19.4  +12.8  66  +20  +20    1014.9  1014.4         
23:56 18.08 СЗ  16 км    2/2 120 м  +18.3  +12.8  70  +17  +18    1014.9  1014.4         
00:56 19.08 СЗ  16 км    2/2 90 м  +16.1  +12.2  78  +14  +14    1014.7  1014.4         
01:56 19.08 СЗ  16 км    2/2 90 м  +14.4  +12.2  87  +12  +12    1014.8  1014.4         
02:56 19.08 З  16 км    2/2 90 м  +13.3  +11.1  87  +10  +10    1015.3  1014.8         
03:56 19.08 З  16 км    2/2 60 м  +13.3  +11.7  90  +10  +10    1015.9  1015.4         
04:56 19.08 З  16 км    2/2 90 м  +12.2  +11.1  93  +9  +9    1016.0  1015.8         
05:56 19.08 З  16 км    2/2 90 м  +12.8  +11.1  89  +10  +10    1015.8  1015.4         
06:56 19.08 З  16 км    2/2 150 м  +11.7  +11.1  96  +9  +9    1015.9  1015.4         
07:56 19.08 З  16 км    2/2 150 м  +11.7  +11.1  96  +9  +9    1015.5  1015.1         
08:56 19.08 З  16 км    2/2 150 м  +11.7  +11.1  96  +9  +9    1015.2  1014.8         
09:56 19.08 З  16 км    2/2 120 м  +11.7  +11.1  96  +9  +9    1014.9  1014.4         
10:16 19.08 З  16 км    8/8 120 м  +11.7  +10.6  93  +9  +9      1014.8         
10:51 19.08 З  16 км    8/8 120 м  +12.0  +11.0  94  +9  +9      1014.8         
10:56 19.08 З  16 км    8/8 120 м  +12.0  +11.0  94  +9  +9    1015.0  1014.8  +11.1       
11:51 19.08 З  16 км    10/10 240 м  +12.0  +12.0  100  +10  +10      1014.8         
11:56 19.08 З   16 км    10/10 240 м  +12.2  +11.7  97  +11  +11    1015.1  1014.8         
12:02 19.08 З  16 км    5/5 180 м  +12.2  +11.7  97  +11  +11      1014.8         
12:11 19.08 нст  16 км    8/8 180 м  +11.7  +11.1  96  +11  +11      1014.8         
12:56 19.08 штиль  16 км    8/8 180 м  +13.0  +11.0  88  +12  +12    1015.3  1014.8         
13:56 19.08 штиль  16 км    8/8 180 м  +13.0  +11.0  88  +12  +13    1015.6  1015.1         
14:56 19.08 штиль  14 км    8/8 180 м  +14.0  +12.0  88  +14  +14    1015.8  1015.4         
15:56 19.08 СВ  16 км    8/8 180 м  +16.0  +12.0  77  +16  +17    1015.7  1015.4         
16:06 19.08 С  16 км    5/5 180 м  +16.1  +11.7  75  +16  +20      1015.4         
16:56 19.08 СЗ  16 км    2/2 180 м  +16.1  +12.2  78  +15  +19    1015.5  1015.1         
17:56 19.08 СЗ  16 км    2/2 210 м  +17.8  +12.2  70  +17  +19    1014.9  1014.4         
18:56 19.08 СЗ  16 км    2/2 210 м  +18.9  +12.2  65  +19  +21    1014.3  1013.7         
19:56 19.08 СЗ  16 км    2/2 240 м  +19.4  +12.2  63  +20  +20    1013.5  1013.1         
20:56 19.08 СЗ  10  14 км    2/2 240 м
[средняя] 
+18.3  +11.7  65  +17  +17    1013.0  1012.7         
21:56 19.08 З  11  16 км    2/2 240 м
[средняя] 
+17.8  +11.7  67  +16  +16    1012.4  1012.1         
22:56 19.08 СЗ  10  16 км    2/2 240 м
[средняя] 
+16.7  +11.7  72  +15  +15      1011.4  +16.1  +20.0     
23:56 19.08 З  10  13 км    5/2 150 м
[средняя] 
+16.1  +11.7  75  +14  +14    1011.7  1011.4         
00:56 20.08 З  14 км    5/2 150 м
[средняя] 
+15.0  +11.1  77  +13  +13    1011.8  1011.4         
01:56 20.08 З  14 км    5/2 150 м
[средняя] 
+13.0  +11.0  88  +10  +10    1011.9  1011.4         
02:56 20.08 З  14 км    5/2 120 м
[средняя] 
+12.8  +11.1  89  +10  +10    1012.1  1011.7         
03:56 20.08 З  14 км    5/2 120 м
[средняя] 
+12.8  +11.1  89  +10  +10    1012.3  1011.7         
04:56 20.08 З  16 км    2/2 180 м
[средняя] 
+13.0  +11.0  88  +11  +11    1012.2  1011.7  +12.8       
05:56 20.08 СЗ  16 км    2/2 180 м
[средняя] 
+13.3  +11.7  90  +12  +12    1011.9  1011.4         
06:56 20.08 З  16 км    2/2 180 м  +12.8  +11.1  89  +11  +11    1011.9  1011.4         
07:56 20.08 штиль  16 км    2/2 210 м  +12.8  +10.0  83  +12  +12    1011.6  1011.4         
08:56 20.08 ЮЗ  16 км    2/2 210 м  +13.3  +10.6  84  +12  +12    1011.5  1011.0         
09:56 20.08 ЮЗ  16 км    2/2 210 м  +13.9  +10.6  80  +13  +13    1011.7  1011.4         
10:56 20.08 З   16 км    2/2 210 м  +13.0  +11.0  88  +12  +12    1011.9  1011.4  +12.8       

 

Местоположение метеостанции San Francisco International Airport: широта 37.6196 долгота -122.3656 высота над уровнем моря 3 м.

В архиве по умолчанию представлена погода в Сан-Франциско за последние 1-2 суток. Обновление информации о фактической погоде в базе происходит ежечасно! Архивные данные за месяц целиком и за предыдущие месяцы Вы можете получить, выбрав интересующий диапазон дат из раскрывающегося списка и нажав кнопку "Ввод!".

Внимание! Архив погоды МЕТАР в базе сайта в настоящее время начинается c 1 января 2013 г. Нет смысла пытаться выбрать более раннюю дату.

Внимание! Время в таблицах - всемирное. Для получения местного времени необходимо прибавить поправку, которая в Сан-Франциско равна -8 ч.

Ветер - указаны скорость ветра в м/с и направление, откуда дует ветер: С - северный, СВ - северо-восточный, В - восточный, ЮВ - юго-восточный, Ю - южный, ЮЗ - юго-западный, З - западный, СЗ - северо-западный.
Видимость - горизонтальная дальность видимости в метрах или километрах. При видимости от 1 до 10 км при отсутствии осадков обычно наблюдается дымка, при ухудшении видимости до 1 км и менее - туман. В сухую погоду видимость может ухудшаться дымом, пылью или мглою.
Атмосферные явления - указаны явления, наблюдавшиеся в указанный момент времени.
Облачность - указаны через наклонную черту верхняя и нижняя облачность в баллах и высота нижней границы облаков в метрах. Внимание: облачность, как и прочие метеорологические величины в США измеряются автоматическими метеостанциями. Указанные значения в баллах носят условный характер и показывают процент времени, в течение которого, в среднем, лазерный луч высотомера отражался от облаков обратно.
T - Температура воздуха - температура, измеренная на высоте 2 м над землей.
Td - Температура точки росы - температура, при понижении до которой содержащийся в воздухе водяной пар достигнет насыщения.
f - Относительная влажность воздуха - влажноcть воздуха, измеренная на высоте 2 м над землей.
Te - Эффективная температура - температура, которую ощущает одетый по сезону человек в тени. Характеристика душности погоды. При расчете учитывается влияние влажности воздуха и скорости ветра на теплоощущения человека.
Tes - Эффективная температура на солнце - температура, которую ощущает человек, с поправкой на солнечный нагрев. Характеристика знойности погоды. Зависит от высоты солнца над горизонтом, облачности и скорости ветра. Ночью, в пасмурную погоду, а также при ветре 12 м/с и более поправка равна нулю.
P - Атмосферное давление - приведенное к уровню моря атмосферное давление.
Po - Атмосферное давление - измеренное на уровне метеостанции атмосферное давление.
Tmin - Минимальная температура - минимум температуры воздуха на высоте 2 м над землей.
Tmax - Максимальная температура - максимум температуры воздуха на высоте 2 м над землей.
R - Количество осадков - Количество выпавших осадков за 3 или 6 часов, мм.
SD - Снежный покров - Высота снежного покрова, см.